Location: Castelbiague
(43.0361°N, 0.9246°E)
Time: 08:28:23
(UTC+00:00)

Cosmos 1452 Rocket - Pass Details

Date: 17 June 2021
Orbit: 768 x 774 km, 74.1° (Epoch: 01 August)

Event Time Altitude Azimuth Distance (km) Brightness Sun altitude
Rises 20:17:01 0° 182° (S) 3,235 6.4 -6.5°
Reaches altitude 10° 20:19:27 10° 176° (S) 2,312 5.6 -6.8°
Maximum altitude 20:24:28 47° 104° (ESE) 1,015 3.8 -7.5°
Drops below altitude 10° 20:29:30 10° 31° (NNE) 2,326 6.2 -8.2°
Sets 20:31:57 0° 26° (NNE) 3,256 7.0 -8.5°
